KC3ECO Weather Reports


time (UTC)temp
F
wind
direction
speed
knots
gust
knots
rain 1hr
in
rain 24hr
in
rain mn
in
humidity
%
barometer
mb
20260504045038 39 45 0.9 1.7 0.00 0.01 0.00 83 1014.9
20260504044016 40 268 1.7 2.6 0.00 0.01 0.00 83 1014.9
20260504043036 40 87 0.9 2.6 0.00 0.01 0.00 82 1015.1
20260504042016 40 84 0.9 1.7 0.00 0.01 0.00 82 1014.9
20260504041016 40 359 0.9 2.6 0.00 0.01 0.00 81 1014.8
20260504040016 40 95 0.9 1.7 0.00 0.01 0.00 80 1014.8
20260504035017 40 97 0.9 1.7 0.00 0.01 0.01 81 1014.7
20260504034016 41 251 0.9 1.7 0.00 0.01 0.01 80 1014.6
20260504033017 41 112 0.9 1.7 0.00 0.01 0.01 79 1014.5
20260504032017 41 98 0.9 1.7 0.00 0.01 0.01 77 1014.5
20260504031017 41 122 0.9 1.7 0.00 0.01 0.01 76 1014.4
20260504030017 42 107 0.9 1.7 0.00 0.01 0.01 77 1014.4
20260504025017 42 89 0.9 1.7 0.00 0.01 0.01 76 1014.4
20260504024017 43 114 0.9 1.7 0.00 0.01 0.01 75 1014.3
20260504023017 43 106 0.9 1.7 0.00 0.01 0.01 73 1014.3
20260504022018 43 112 0.9 1.7 0.00 0.01 0.01 74 1014.3
20260504021018 44 321 0.9 1.7 0.00 0.01 0.01 73 1014.3
20260504020018 44 110 0.9 1.7 0.00 0.01 0.01 71 1014.3
20260504015018 45 62 0.9 1.7 0.00 0.01 0.01 70 1014.2
20260504014018 45 61 0.9 1.7 0.00 0.01 0.01 68 1014.2
20260504013018 45 35 0.9 1.7 0.00 0.01 0.01 69 1014.0
20260504012019 46 358 0.9 1.7 0.00 0.01 0.01 65 1014.0
20260504011017 47 115 1.7 3.5 0.00 0.01 0.01 65 1013.9
20260504010018 47 120 1.7 4.3 0.00 0.01 0.01 65 1013.8
20260504005016 48 101 1.7 5.2 0.00 0.01 0.01 63 1013.8
20260504004016 49 121 0.9 2.6 0.00 0.01 0.01 59 1013.7
20260504003036 50 98 0.9 2.6 0.00 0.01 0.01 58 1013.5
20260504002017 51 86 0.9 1.7 0.00 0.01 0.01 55 1013.4
20260504001016 52 86 0.9 2.6 0.00 0.01 0.01 54 1013.4
20260504000017 54 90 0.9 2.6 0.00 0.01 0.01 51 1013.3
20260503235016 55 54 0.9 1.7 0.00 0.01 0.01 48 1013.1
20260503234036 57 24 0.9 1.7 0.00 0.01 0.01 44 1012.9
20260503233017 58 330 0.9 3.5 0.00 0.01 0.01 42 1013.0
20260503232017 58 293 1.7 4.3 0.00 0.01 0.01 40 1013.2
20260503231018 59 268 0.9 2.6 0.00 0.01 0.01 40 1013.2
20260503230037 60 271 1.7 4.3 0.00 0.01 0.01 39 1013.4
20260503225017 61 264 3.5 8.7 0.00 0.01 0.01 38 1013.5
20260503224039 61 273 1.7 5.2 0.00 0.01 0.01 37 1013.4
20260503223019 61 280 2.6 8.7 0.00 0.01 0.01 39 1013.4
20260503222018 62 271 2.6 7.0 0.01 0.01 0.01 38 1013.5
20260503221058 62 276 2.6 6.1 0.01 0.01 0.01 37 1013.5
20260503220018 61 269 1.7 5.2 0.01 0.01 0.01 37 1013.4
20260503215018 62 254 2.6 7.0 0.00 0.01 0.01 38 1013.5
20260503214018 62 266 3.5 7.8 0.00 0.01 0.01 36 1013.5
20260503213018 62 249 3.5 9.6 0.00 0.01 0.01 37 1013.4
20260503212019 62 269 2.6 7.0 0.00 0.00 0.00 37 1013.5
20260503211036 62 269 2.6 7.8 0.00 0.00 0.00 38 1013.6
20260503210016 62 272 2.6 5.2 0.00 0.00 0.00 39 1013.6
20260503205016 62 274 3.5 8.7 0.00 0.00 0.00 37 1013.6
20260503204016 61 240 2.6 5.2 0.00 0.00 0.00 37 1013.8
20260503203016 60 263 3.5 8.7 0.00 0.00 0.00 39 1013.9
20260503202016 60 257 4.3 10.4 0.00 0.00 0.00 39 1013.7
20260503201016 60 265 2.6 6.1 0.00 0.00 0.00 39 1013.8
20260503200017 61 265 4.3 8.7 0.00 0.00 0.00 39 1014.2
20260503195017 60 256 3.5 10.4 0.00 0.00 0.00 40 1014.3
20260503194017 61 251 3.5 12.2 0.00 0.00 0.00 39 1014.2
20260503193017 60 284 4.3 8.7 0.00 0.00 0.00 40 1014.6
20260503192039 59 255 3.5 7.8 0.00 0.00 0.00 41 1014.5
20260503191037 59 275 4.3 9.6 0.00 0.00 0.00 41 1014.8
20260503190017 58 274 4.3 8.7 0.00 0.00 0.00 41 1014.9
20260503185019 58 236 2.6 6.1 0.00 0.00 0.00 42 1014.6
20260503184018 57 259 2.6 9.6 0.00 0.00 0.00 42 1015.0
20260503183017 57 276 1.7 6.1 0.00 0.00 0.00 43 1014.5
20260503182019 57 255 3.5 7.8 0.00 0.00 0.00 43 1015.2
20260503181018 58 250 4.3 8.7 0.00 0.00 0.00 41 1015.2
20260503180018 58 277 2.6 7.0 0.00 0.00 0.00 44 1015.3
20260503175018 58 242 2.6 8.7 0.00 0.00 0.00 43 1015.4
20260503174018 57 240 2.6 6.1 0.00 0.00 0.00 43 1015.3
20260503173019 57 238 2.6 7.0 0.00 0.00 0.00 43 1015.5
20260503172036 57 264 3.5 10.4 0.00 0.00 0.00 42 1015.6
20260503171016 57 245 3.5 7.0 0.00 0.00 0.00 44 1015.9
20260503131015 48 249 3.5 9.6 0.00 0.00 0.00 57 1016.4
20260503081018 41 246 1.7 4.3 0.00 0.00 0.00 73 1012.6
20260503072018 42 265 2.6 5.2 0.00 0.00 0.00 73 1012.3
20260503071018 42 257 2.6 5.2 0.00 0.00 0.00 73 1012.3
20260503055036 42 280 0.9 2.6 0.00 0.00 0.00 75 1012.3
20260503054016 41 269 1.7 3.5 0.00 0.00 0.00 76 1012.3